Waarnemingen

Advertentie
Mijn weer
Yecla, Spanje (8356): temperatuur & dauwpunt: 11.01.2021 19:00:00 - 17.01.2021 19:00:00 (CET)Yecla, Spanje (8356): windsnelheid & windstoten: 11.01.2021 19:00:00 - 17.01.2021 19:00:00 (CET)Yecla, Spanje (8356): windrichting: 11.01.2021 19:00:00 - 17.01.2021 19:00:00 (CET)Yecla, Spanje (8356): luchtdruk: 11.01.2021 19:00:00 - 17.01.2021 19:00:00 (CET)Yecla, Spanje (8356): zicht: 11.01.2021 19:00:00 - 17.01.2021 19:00:00 (CET)Yecla, Spanje (8356): Zonneschijnduur: 11.01.2021 19:00:00 - 17.01.2021 19:00:00 (CET)Yecla, Spanje (8356): neerslag: 11.01.2021 19:00:00 - 17.01.2021 19:00:00 (CET)
Datum & Tijd tt [°C] td [°C] ff [km/u] ff [kn] fx [km/u] fx [kn] dd ppp [hPa] vv [km] sd [min] rr [mm]
17.01.2021 19:00:00 - - - - - - - - - - -
17.01.2021 18:00:00 11,6 -9,9 6 3 15 8 ZZO 1026,5 20 49 0,0
17.01.2021 17:00:00 15,3 -11,2 5 3 21 11 W 1025,5 20 60 0,0
17.01.2021 16:00:00 16,1 -9,9 7 4 34 18 WZW 1024,9 20 60 0,0
17.01.2021 15:00:00 15,9 -9,0 10 5 36 19 WNW 1025,2 20 60 0,0
17.01.2021 14:00:00 15,3 -11,2 - - - - - 1026,0 20 60 0,0
17.01.2021 13:00:00 15,1 -9,0 8 4 34 19 NNW 1027,0 20 60 -
17.01.2021 12:00:00 14,7 -9,4 5 3 23 12 WZW 1028,0 20 60 0,0
17.01.2021 11:00:00 12,4 -9,9 6 3 16 9 O 1028,6 20 60 0,0
17.01.2021 10:00:00 7,2 -4,8 5 3 10 5 ZZO 1029,9 20 60 0,0
17.01.2021 09:00:00 0,2 -5,1 3 2 6 4 ZZW 1031,4 20 11 0,0
17.01.2021 08:00:00 -2,5 -6,4 4 2 9 5 ZW 1032,2 20 0 0,0
17.01.2021 07:00:00 -2,2 -6,4 3 2 10 5 W 1031,7 20 0 -
17.01.2021 06:00:00 -2,8 -6,7 6 3 9 5 WZW 1032,1 20 0 0,0
17.01.2021 05:00:00 -1,8 -6,4 6 3 10 6 WZW 1032,0 20 0 0,0
17.01.2021 04:00:00 -0,6 -6,0 3 2 10 5 W 1031,5 20 0 0,0
17.01.2021 03:00:00 1,7 -6,0 4 2 14 7 WZW 1031,1 20 0 0,0
17.01.2021 02:00:00 0,8 -5,4 3 2 9 5 ZZO 1031,8 20 0 0,0
17.01.2021 01:00:00 0,6 -5,7 2 1 10 5 Z 1032,2 20 0 -
17.01.2021 00:00:00 0,1 -6,0 3 2 9 5 ZW 1032,3 20 0 0,0
16.01.2021 23:00:00 0,2 -6,0 4 2 10 5 WNW 1032,2 20 0 0,0
16.01.2021 22:00:00 1,9 -6,0 4 2 13 7 ZW 1031,4 20 0 0,0
16.01.2021 21:00:00 0,0 -6,4 4 2 8 4 WZW 1031,8 20 0 0,0
16.01.2021 20:00:00 3,1 -5,7 4 2 13 7 OZO 1030,8 20 0 0,0
16.01.2021 19:00:00 4,8 -4,8 6 3 11 6 ZZO 1029,9 18 0 -
16.01.2021 18:00:00 8,2 -5,4 10 5 23 13 NW 1028,4 20 48 0,0
16.01.2021 17:00:00 11,0 -3,9 11 6 23 12 NW 1027,1 20 60 0,0
16.01.2021 16:00:00 13,4 -6,4 4 2 15 8 NW 1026,0 20 60 0,0
16.01.2021 15:00:00 13,0 -7,1 8 4 17 9 ZW 1025,9 20 60 0,0
16.01.2021 14:00:00 11,9 -5,7 4 2 15 8 ZO 1026,7 20 60 0,0
16.01.2021 13:00:00 10,0 -6,4 4 2 18 10 NNO 1027,7 20 60 -
16.01.2021 12:00:00 7,8 -5,1 13 7 24 13 NW 1029,0 20 60 0,0
16.01.2021 11:00:00 8,1 -5,7 4 2 11 6 ZO 1028,5 20 60 0,0
16.01.2021 10:00:00 4,9 -5,1 5 3 18 10 O 1028,7 20 60 0,0
16.01.2021 09:00:00 -0,4 -5,1 2 1 10 5 ZW 1029,1 20 11 0,0
16.01.2021 08:00:00 -0,4 -5,7 6 4 12 6 ZZO 1028,5 20 0 0,0
16.01.2021 07:00:00 1,6 -5,7 4 2 17 9 ZZW 1027,3 20 0 -
16.01.2021 06:00:00 2,5 -5,4 5 3 38 21 ZW 1026,4 20 0 0,0
16.01.2021 05:00:00 3,2 -4,5 19 10 39 21 WNW 1025,6 20 0 0,0
16.01.2021 04:00:00 4,2 -5,1 11 6 40 22 W 1025,6 20 0 0,0
16.01.2021 03:00:00 4,8 -5,4 19 11 49 26 WNW 1024,7 20 0 0,0
16.01.2021 02:00:00 4,8 -5,1 22 12 49 26 W 1024,6 20 0 0,0
16.01.2021 01:00:00 5,1 -4,5 23 13 46 25 W 1025,1 20 0 -
16.01.2021 00:00:00 5,1 -4,2 26 14 43 23 W 1025,2 20 0 0,0
15.01.2021 23:00:00 5,1 -3,9 16 9 60 32 WNW 1025,5 20 0 0,0
15.01.2021 22:00:00 5,3 -3,6 24 13 53 29 WNW 1025,3 20 0 0,0
15.01.2021 21:00:00 6,0 -3,6 21 12 47 25 WNW 1025,6 20 0 0,0
15.01.2021 20:00:00 6,3 -3,3 29 16 50 27 NW 1025,3 20 0 0,0
15.01.2021 19:00:00 6,3 -3,3 20 11 41 22 NW 1025,6 20 0 -
15.01.2021 18:00:00 7,2 -3,6 17 9 41 22 WNW 1024,9 20 47 0,0
15.01.2021 17:00:00 9,2 -4,5 22 12 51 28 WNW 1024,0 20 60 0,0
15.01.2021 16:00:00 10,9 -3,6 16 8 39 21 WNW 1023,7 20 60 0,0
15.01.2021 15:00:00 11,6 -5,1 17 9 34 19 W 1023,5 20 60 0,0
15.01.2021 14:00:00 10,9 -3,3 11 6 42 23 NNW 1024,1 20 60 0,0
15.01.2021 13:00:00 10,2 -3,3 - - - - - 1025,1 20 60 -
15.01.2021 12:00:00 8,3 -2,7 38 20 55 30 NNW 1026,1 20 60 0,0
15.01.2021 11:00:00 8,1 -3,0 24 13 51 28 NW 1026,4 20 60 0,0
15.01.2021 10:00:00 6,4 -2,7 12 7 33 18 W 1026,8 20 60 0,0
15.01.2021 09:00:00 4,9 -2,2 12 7 47 25 W 1026,5 20 11 0,0
15.01.2021 08:00:00 5,0 -1,4 35 19 54 29 NNW 1025,8 20 0 0,0
15.01.2021 07:00:00 5,5 -1,4 31 17 53 29 NW 1025,4 20 0 -
15.01.2021 06:00:00 6,0 -1,2 23 13 55 30 NW 1025,1 20 0 0,0
15.01.2021 05:00:00 5,6 -2,5 14 8 37 20 N 1025,7 20 0 0,0
15.01.2021 04:00:00 6,2 -2,0 11 6 36 20 NNW 1025,7 20 0 0,0
15.01.2021 03:00:00 7,1 -1,7 19 10 44 24 NW 1025,2 20 0 0,0
15.01.2021 02:00:00 7,2 -1,4 17 9 46 25 NW 1025,3 20 0 0,0
15.01.2021 01:00:00 7,1 -3,0 18 10 56 30 NW 1025,8 20 0 -
15.01.2021 00:00:00 7,6 -5,7 16 9 45 24 NNW 1025,4 20 0 0,0
14.01.2021 23:00:00 7,1 -7,8 22 12 53 29 NW 1025,4 20 0 0,0
14.01.2021 22:00:00 6,9 -7,5 15 8 35 19 WNW 1025,4 20 0 0,0
14.01.2021 21:00:00 7,5 -8,2 8 5 37 20 WNW 1025,0 20 0 0,0
14.01.2021 20:00:00 8,4 -8,6 22 12 45 25 NW 1024,2 20 0 0,0
14.01.2021 19:00:00 7,5 -8,6 16 9 41 22 WNW 1024,7 20 0 -
14.01.2021 18:00:00 8,6 -9,0 18 10 49 26 WNW 1024,1 20 45 0,0
14.01.2021 17:00:00 9,7 -7,5 33 18 52 28 NW 1023,5 20 60 0,0
14.01.2021 16:00:00 11,2 -6,7 5 3 22 12 NW 1022,7 20 60 0,0
14.01.2021 15:00:00 11,3 -7,5 8 4 29 16 N 1022,6 20 60 0,0
14.01.2021 14:00:00 11,8 -6,0 10 6 28 15 W 1023,1 20 60 0,0
14.01.2021 13:00:00 11,7 -6,4 5 3 20 11 ZZW 1024,1 20 60 -
14.01.2021 12:00:00 9,6 -6,4 8 4 20 11 W 1025,7 20 60 0,0
14.01.2021 11:00:00 8,6 -6,7 10 6 28 15 ZW 1026,3 20 60 0,0
14.01.2021 10:00:00 7,1 -6,7 9 5 26 14 OZO 1026,4 20 60 0,0
14.01.2021 09:00:00 2,7 -6,7 9 5 17 9 ZO 1027,5 20 10 0,0
14.01.2021 08:00:00 2,1 -7,5 11 6 16 9 ZO 1027,6 20 0 0,0
14.01.2021 07:00:00 1,4 -7,1 5 3 16 9 Z 1028,0 20 0 -
14.01.2021 06:00:00 -0,3 -7,1 5 3 9 5 ZW 1028,5 20 0 0,0
14.01.2021 05:00:00 0,7 -6,4 4 2 13 7 WZW 1028,3 20 0 0,0
14.01.2021 04:00:00 - - - - - - - - - - -
14.01.2021 03:00:00 0,4 -6,4 3 1 11 6 Z 1029,3 20 0 0,0
14.01.2021 02:00:00 0,8 -6,4 4 2 13 7 Z 1029,4 20 0 0,0
14.01.2021 01:00:00 1,3 -6,4 6 4 9 5 ZO 1030,1 20 0 -
14.01.2021 00:00:00 1,3 -6,0 4 2 11 6 Z 1030,5 20 0 0,0
13.01.2021 23:00:00 3,4 -6,7 6 3 26 14 NO 1030,0 20 0 0,0
13.01.2021 22:00:00 3,3 -6,0 4 2 16 8 Z 1029,8 20 0 0,0
13.01.2021 21:00:00 3,5 -5,4 6 4 17 9 ZW 1029,9 20 0 0,0
13.01.2021 20:00:00 2,3 -4,8 3 1 7 4 O 1029,9 20 0 0,0
13.01.2021 19:00:00 4,3 -5,1 4 2 22 12 ONO 1029,1 20 0 -
13.01.2021 18:00:00 6,5 -5,1 11 6 18 10 WZW 1028,3 20 44 0,0
13.01.2021 17:00:00 9,5 -5,7 13 7 23 12 WZW 1027,2 20 60 0,0
13.01.2021 16:00:00 10,8 -6,4 9 5 - - WNW 1026,8 20 - -
13.01.2021 15:00:00 10,0 -6,4 16 9 31 17 NW 1026,6 20 60 0,0
13.01.2021 14:00:00 10,6 -6,4 6 3 23 12 NW 1027,3 20 60 0,0
13.01.2021 13:00:00 9,6 -7,5 8 4 18 10 NW 1028,3 20 60 -
13.01.2021 12:00:00 8,7 -6,4 9 5 15 8 WZW 1029,5 20 60 0,0
13.01.2021 11:00:00 6,2 -6,0 5 3 11 6 O 1030,3 20 60 0,0
13.01.2021 10:00:00 3,0 -5,4 3 2 7 4 ZO 1030,8 20 60 0,0
13.01.2021 09:00:00 -1,6 -6,4 4 2 8 4 OZO 1031,7 20 10 0,0
13.01.2021 08:00:00 -1,9 -6,7 4 2 9 5 ONO 1031,2 20 0 0,0
13.01.2021 07:00:00 -2,6 -7,1 3 2 10 5 ZZO 1031,2 20 0 -
13.01.2021 06:00:00 -2,4 -7,5 3 2 11 6 ZZO 1030,9 20 0 0,0
13.01.2021 05:00:00 -1,8 -7,5 5 3 15 8 ZZO 1031,1 20 0 0,0
13.01.2021 04:00:00 - - - - - - - - - - -
13.01.2021 03:00:00 -1,6 -7,5 6 4 13 7 ZZO 1031,6 20 0 0,0
13.01.2021 02:00:00 -1,6 -7,5 4 2 16 8 ZW 1031,7 20 0 0,0
13.01.2021 01:00:00 1,5 -7,5 13 7 29 15 ZZO 1031,1 20 0 -
13.01.2021 00:00:00 -0,3 -7,1 10 5 19 10 ZZO 1031,9 20 0 0,0
12.01.2021 23:00:00 1,3 -7,1 8 4 21 11 ZO 1031,3 20 0 0,0
12.01.2021 22:00:00 2,1 -7,5 13 7 36 19 OZO 1030,5 20 0 0,0
12.01.2021 21:00:00 4,0 -8,6 20 11 42 23 NW 1029,7 20 0 0,0
12.01.2021 20:00:00 1,0 -6,7 14 7 21 12 ZO 1030,7 20 0 0,0
12.01.2021 19:00:00 3,1 -8,6 10 5 35 19 ZZO 1029,8 20 0 -
12.01.2021 18:00:00 4,9 -10,3 14 8 36 20 W 1028,8 20 44 0,0
12.01.2021 17:00:00 5,9 -9,9 14 7 31 17 NNW 1028,3 20 60 0,0
12.01.2021 16:00:00 6,9 -9,0 12 7 35 19 W 1027,9 20 60 0,0
12.01.2021 15:00:00 7,4 -9,0 9 5 27 15 ZW 1027,6 17 60 0,0
12.01.2021 14:00:00 7,8 -9,9 8 5 23 12 W 1027,8 20 60 0,0
12.01.2021 13:00:00 7,3 -8,6 13 7 24 13 WZW 1028,6 20 60 -
12.01.2021 12:00:00 6,1 -9,0 6 3 13 7 Z 1029,8 20 60 0,0
12.01.2021 11:00:00 3,5 -6,7 6 4 14 8 O 1030,4 20 60 0,0
12.01.2021 10:00:00 0,4 -6,7 8 5 14 7 OZO 1030,5 20 60 0,0
12.01.2021 09:00:00 -2,3 -7,5 12 6 26 14 ZO 1030,6 20 10 0,0
12.01.2021 08:00:00 -0,5 -8,6 10 5 34 19 WZW 1029,7 20 0 0,0
12.01.2021 07:00:00 -0,4 -9,0 13 7 39 21 W 1028,8 20 0 -
12.01.2021 06:00:00 -1,4 -6,7 7 4 21 12 Z 1028,5 20 0 0,0
12.01.2021 05:00:00 -1,9 -6,0 6 3 14 8 ZZO 1028,6 20 0 0,0
12.01.2021 04:00:00 -0,1 -6,0 11 6 32 17 ZZW 1028,2 20 0 0,0
12.01.2021 03:00:00 0,4 -5,4 10 5 20 11 ZZO 1028,2 20 0 0,0
12.01.2021 02:00:00 1,1 -6,4 6 3 42 23 ZZO 1027,5 20 0 0,0
12.01.2021 01:00:00 1,0 -6,0 10 5 24 13 NW 1027,4 20 0 -
12.01.2021 00:00:00 0,8 -5,7 6 3 19 10 Z 1027,3 20 0 0,0
11.01.2021 23:00:00 0,8 -5,4 6 3 24 13 Z 1026,7 20 0 0,0
11.01.2021 22:00:00 1,5 -6,0 6 3 35 19 W 1025,9 20 0 0,0
11.01.2021 21:00:00 2,1 -5,4 24 13 34 19 NNW 1025,1 20 0 0,0
11.01.2021 20:00:00 2,1 -4,5 10 5 28 15 W 1024,5 20 0 0,0
11.01.2021 19:00:00 2,9 -2,5 10 6 21 11 NNW 1023,5 20 0 -

tt = temperatuur
td = dauwpunt
ff = windsnelheid
fx = windstoten
dd = windrichting
ppp = luchtdruk
vv = zicht
sd = Zonneschijnduur
rr = neerslag

Weerstations in de omgeving